| time (UTC) | temp F | wind direction | speed MPH | gust MPH | rain 1hr in | rain 24hr in | rain mn in | humidity % | barometer mb |
| 20260504050358 | 50 | 291 | 1.0 | 1.0 | 0.00 | 0.00 | 0.00 | 55 | 1015.8 |
| 20260504045855 | 50 | 245 | 1.0 | 2.0 | 0.00 | 0.00 | 0.00 | 56 | 1015.7 |
| 20260504045350 | 50 | 279 | 1.0 | 1.0 | 0.00 | 0.00 | 0.00 | 55 | 1015.8 |
| 20260504044847 | 50 | 235 | 2.0 | 3.0 | 0.00 | 0.00 | 0.00 | 55 | 1015.7 |
| 20260504044344 | 50 | 239 | 1.0 | 2.0 | 0.00 | 0.00 | 0.00 | 55 | 1015.6 |
| 20260504043842 | 50 | 233 | 1.0 | 1.0 | 0.00 | 0.00 | 0.00 | 55 | 1015.7 |
| 20260504043338 | 50 | 299 | 2.0 | 3.0 | 0.00 | 0.00 | 0.00 | 56 | 1015.7 |
| 20260504042836 | 50 | 241 | 4.0 | 6.0 | 0.00 | 0.00 | 0.00 | 55 | 1015.7 |
| 20260504042332 | 50 | 271 | 3.0 | 3.0 | 0.00 | 0.00 | 0.00 | 56 | 1015.5 |
| 20260504041828 | 50 | 220 | 3.0 | 3.0 | 0.00 | 0.00 | 0.00 | 55 | 1015.4 |
| 20260504041324 | 50 | 228 | 3.0 | 3.0 | 0.00 | 0.00 | 0.00 | 55 | 1015.5 |
| 20260504040821 | 50 | 240 | 2.0 | 3.0 | 0.00 | 0.00 | 0.00 | 55 | 1015.4 |
| 20260504040319 | 51 | 205 | 3.0 | 3.0 | 0.00 | 0.00 | 0.00 | 55 | 1015.3 |
| 20260504035814 | 51 | 236 | 1.0 | 2.0 | 0.00 | 0.00 | 0.00 | 55 | 1015.5 |
| 20260504035312 | 51 | 239 | 3.0 | 3.0 | 0.00 | 0.00 | 0.00 | 55 | 1015.3 |
| 20260504034809 | 51 | 230 | 3.0 | 3.0 | 0.00 | 0.00 | 0.00 | 55 | 1015.0 |
| 20260504034307 | 51 | 234 | 2.0 | 2.0 | 0.00 | 0.00 | 0.00 | 55 | 1015.1 |
| 20260504033803 | 51 | 238 | 2.0 | 2.0 | 0.00 | 0.00 | 0.00 | 55 | 1015.2 |
| 20260504033301 | 51 | 240 | 3.0 | 5.0 | 0.00 | 0.00 | 0.00 | 55 | 1015.4 |
| 20260504032758 | 51 | 218 | 2.0 | 2.0 | 0.00 | 0.00 | 0.00 | 55 | 1015.1 |
| 20260504032255 | 51 | 224 | 2.0 | 2.0 | 0.00 | 0.00 | 0.00 | 54 | 1015.3 |
| 20260504031751 | 51 | 225 | 2.0 | 2.0 | 0.00 | 0.00 | 0.00 | 53 | 1015.2 |
| 20260504031249 | 51 | 261 | 1.0 | 2.0 | 0.00 | 0.00 | 0.00 | 54 | 1014.9 |
| 20260504030744 | 52 | 240 | 4.0 | 5.0 | 0.00 | 0.00 | 0.00 | 53 | 1015.1 |
| 20260504030242 | 52 | 235 | 2.0 | 2.0 | 0.00 | 0.00 | 0.00 | 53 | 1015.0 |
| 20260504025738 | 52 | 243 | 3.0 | 5.0 | 0.00 | 0.00 | 0.00 | 52 | 1015.0 |
| 20260504025235 | 52 | 189 | 1.0 | 3.0 | 0.00 | 0.00 | 0.00 | 52 | 1014.8 |
| 20260504024732 | 52 | 217 | 0.0 | 1.0 | 0.00 | 0.00 | 0.00 | 52 | 1015.0 |
| 20260504024229 | 52 | 206 | 3.0 | 3.0 | 0.00 | 0.00 | 0.00 | 52 | 1015.0 |
| 20260504023726 | 51 | 222 | 3.0 | 3.0 | 0.00 | 0.00 | 0.00 | 53 | 1015.0 |
| 20260504023222 | 52 | 242 | 1.0 | 1.0 | 0.00 | 0.00 | 0.00 | 53 | 1015.2 |
| 20260504022718 | 52 | 248 | 3.0 | 5.0 | 0.00 | 0.00 | 0.00 | 52 | 1015.1 |
| 20260504022214 | 52 | 247 | 2.0 | 2.0 | 0.00 | 0.00 | 0.00 | 52 | 1015.2 |
| 20260504021712 | 52 | 269 | 3.0 | 5.0 | 0.00 | 0.00 | 0.00 | 52 | 1015.1 |
| 20260504021209 | 52 | 281 | 3.0 | 3.0 | 0.00 | 0.00 | 0.00 | 52 | 1015.0 |
| 20260504020706 | 52 | 209 | 1.0 | 2.0 | 0.00 | 0.00 | 0.00 | 52 | 1015.1 |
| 20260504020201 | 52 | 213 | 0.0 | 1.0 | 0.00 | 0.00 | 0.00 | 52 | 1015.1 |
| 20260504015658 | 53 | 249 | 0.0 | 1.0 | 0.00 | 0.00 | 0.00 | 50 | 1015.1 |
| 20260504015154 | 53 | 232 | 2.0 | 3.0 | 0.00 | 0.00 | 0.00 | 49 | 1014.9 |
| 20260504014650 | 54 | 207 | 2.0 | 3.0 | 0.00 | 0.00 | 0.00 | 48 | 1014.9 |
| 20260504014148 | 54 | 220 | 3.0 | 3.0 | 0.00 | 0.00 | 0.00 | 47 | 1015.0 |
| 20260504013645 | 54 | 216 | 2.0 | 2.0 | 0.00 | 0.00 | 0.00 | 48 | 1015.1 |
| 20260504013142 | 54 | 223 | 5.0 | 6.0 | 0.00 | 0.00 | 0.00 | 47 | 1015.0 |
| 20260504012639 | 54 | 224 | 3.0 | 3.0 | 0.00 | 0.00 | 0.00 | 48 | 1015.0 |
| 20260504012137 | 54 | 235 | 3.0 | 5.0 | 0.00 | 0.00 | 0.00 | 48 | 1014.8 |
| 20260504011633 | 54 | 233 | 3.0 | 5.0 | 0.00 | 0.00 | 0.00 | 47 | 1014.8 |
| 20260504011130 | 54 | 205 | 2.0 | 2.0 | 0.00 | 0.00 | 0.00 | 48 | 1014.6 |
| 20260504010625 | 54 | 228 | 1.0 | 2.0 | 0.00 | 0.00 | 0.00 | 48 | 1014.8 |
| 20260504010116 | 54 | 259 | 2.0 | 3.0 | 0.00 | 0.00 | 0.00 | 48 | 1014.6 |
| 20260504005613 | 54 | 214 | 3.0 | 3.0 | 0.00 | 0.00 | 0.00 | 48 | 1014.8 |
| 20260504005110 | 54 | 239 | 3.0 | 5.0 | 0.00 | 0.00 | 0.00 | 48 | 1014.6 |
| 20260504004608 | 54 | 237 | 1.0 | 1.0 | 0.00 | 0.00 | 0.00 | 48 | 1014.8 |
| 20260504004105 | 54 | 216 | 2.0 | 2.0 | 0.00 | 0.00 | 0.00 | 48 | 1014.3 |
| 20260504003601 | 55 | 268 | 1.0 | 2.0 | 0.00 | 0.00 | 0.00 | 47 | 1014.4 |
| 20260504003058 | 55 | 218 | 2.0 | 2.0 | 0.00 | 0.00 | 0.00 | 46 | 1014.4 |
| 20260504002555 | 56 | 257 | 2.0 | 3.0 | 0.00 | 0.00 | 0.00 | 45 | 1014.2 |
| 20260504002053 | 56 | 257 | 1.0 | 1.0 | 0.00 | 0.00 | 0.00 | 45 | 1014.1 |
| 20260504001550 | 56 | 231 | 1.0 | 2.0 | 0.00 | 0.00 | 0.00 | 45 | 1014.2 |
| 20260504001046 | 56 | 244 | 3.0 | 3.0 | 0.00 | 0.00 | 0.00 | 44 | 1013.9 |
| 20260504000543 | 57 | 214 | 2.0 | 3.0 | 0.00 | 0.00 | 0.00 | 44 | 1014.1 |
| 20260504000040 | 57 | 244 | 2.0 | 2.0 | 0.00 | 0.00 | 0.00 | 43 | 1013.7 |
| 20260503235539 | 57 | 276 | 2.0 | 3.0 | 0.00 | 0.00 | 0.00 | 43 | 1013.9 |
| 20260503235035 | 57 | 253 | 4.0 | 5.0 | 0.00 | 0.00 | 0.00 | 42 | 1014.1 |
| 20260503234533 | 58 | 243 | 4.0 | 5.0 | 0.00 | 0.00 | 0.00 | 42 | 1013.8 |
| 20260503234031 | 58 | 242 | 3.0 | 3.0 | 0.00 | 0.00 | 0.00 | 42 | 1013.8 |
| 20260503233527 | 58 | 290 | 3.0 | 3.0 | 0.00 | 0.00 | 0.00 | 42 | 1013.7 |
| 20260503233023 | 58 | 317 | 5.0 | 7.0 | 0.00 | 0.00 | 0.00 | 41 | 1013.8 |
| 20260503232520 | 59 | 289 | 3.0 | 3.0 | 0.00 | 0.00 | 0.00 | 40 | 1013.8 |
| 20260503232018 | 59 | 271 | 4.0 | 5.0 | 0.00 | 0.00 | 0.00 | 40 | 1013.7 |
| 20260503231516 | 59 | 257 | 4.0 | 6.0 | 0.00 | 0.00 | 0.00 | 39 | 1013.9 |
| 20260503231012 | 60 | 283 | 6.0 | 7.0 | 0.00 | 0.00 | 0.00 | 39 | 1013.6 |
| 20260503230508 | 60 | 325 | 7.0 | 8.0 | 0.00 | 0.00 | 0.00 | 39 | 1013.6 |
| 20260503230006 | 60 | 261 | 3.0 | 5.0 | 0.00 | 0.00 | 0.00 | 39 | 1013.7 |
| 20260503225503 | 60 | 253 | 5.0 | 8.0 | 0.00 | 0.00 | 0.00 | 39 | 1013.6 |
| 20260503224952 | 60 | 312 | 8.0 | 13.0 | 0.00 | 0.00 | 0.00 | 38 | 1013.5 |
| 20260503224449 | 60 | 265 | 5.0 | 6.0 | 0.00 | 0.00 | 0.00 | 38 | 1013.5 |
| 20260503223947 | 59 | 248 | 4.0 | 5.0 | 0.00 | 0.00 | 0.00 | 39 | 1013.6 |
| 20260503223445 | 59 | 294 | 2.0 | 3.0 | 0.00 | 0.00 | 0.00 | 40 | 1013.6 |
| 20260503222940 | 60 | 252 | 5.0 | 6.0 | 0.00 | 0.00 | 0.00 | 39 | 1013.7 |
| 20260503222439 | 60 | 297 | 3.0 | 3.0 | 0.00 | 0.00 | 0.00 | 39 | 1013.5 |
| 20260503221937 | 59 | 282 | 7.0 | 8.0 | 0.00 | 0.00 | 0.00 | 38 | 1013.7 |
| 20260503221435 | 60 | 237 | 4.0 | 5.0 | 0.00 | 0.00 | 0.00 | 39 | 1013.5 |
| 20260503220931 | 60 | 235 | 5.0 | 7.0 | 0.00 | 0.00 | 0.00 | 37 | 1013.7 |
| 20260503220427 | 60 | 303 | 5.0 | 6.0 | 0.00 | 0.00 | 0.00 | 38 | 1013.6 |
| 20260503215925 | 60 | 223 | 7.0 | 9.0 | 0.00 | 0.00 | 0.00 | 37 | 1013.5 |
| 20260503215422 | 60 | 302 | 4.0 | 5.0 | 0.00 | 0.00 | 0.00 | 36 | 1013.7 |
| 20260503214919 | 60 | 313 | 7.0 | 10.0 | 0.00 | 0.00 | 0.00 | 37 | 1013.6 |
| 20260503214417 | 60 | 264 | 5.0 | 7.0 | 0.00 | 0.00 | 0.00 | 37 | 1013.5 |
| 20260503213914 | 61 | 322 | 10.0 | 13.0 | 0.00 | 0.00 | 0.00 | 35 | 1013.4 |
| 20260503213412 | 61 | 275 | 11.0 | 14.0 | 0.00 | 0.00 | 0.00 | 36 | 1013.4 |
| 20260503212908 | 61 | 197 | 4.0 | 7.0 | 0.00 | 0.00 | 0.00 | 35 | 1013.4 |
| 20260503212406 | 60 | 239 | 8.0 | 9.0 | 0.00 | 0.00 | 0.00 | 36 | 1013.6 |
| 20260503211903 | 61 | 299 | 9.0 | 13.0 | 0.00 | 0.00 | 0.00 | 36 | 1013.5 |
| 20260503211359 | 61 | 250 | 4.0 | 7.0 | 0.00 | 0.00 | 0.00 | 36 | 1013.5 |
| 20260503210855 | 61 | 300 | 6.0 | 9.0 | 0.00 | 0.00 | 0.00 | 35 | 1013.4 |
| 20260503210352 | 61 | 290 | 8.0 | 10.0 | 0.00 | 0.00 | 0.00 | 36 | 1013.5 |
| 20260503205847 | 61 | 265 | 4.0 | 6.0 | 0.00 | 0.00 | 0.00 | 36 | 1013.5 |
| 20260503205344 | 61 | 245 | 3.0 | 5.0 | 0.00 | 0.00 | 0.00 | 36 | 1013.4 |
| 20260503204841 | 60 | 247 | 9.0 | 11.0 | 0.00 | 0.00 | 0.00 | 36 | 1013.7 |
| 20260503204338 | 60 | 219 | 8.0 | 10.0 | 0.00 | 0.00 | 0.00 | 36 | 1013.5 |
| 20260503203835 | 60 | 248 | 6.0 | 9.0 | 0.00 | 0.00 | 0.00 | 36 | 1013.5 |
| 20260503203333 | 61 | 251 | 8.0 | 11.0 | 0.00 | 0.00 | 0.00 | 35 | 1013.5 |
| 20260503202829 | 60 | 161 | 2.0 | 3.0 | 0.00 | 0.00 | 0.00 | 36 | 1013.5 |
| 20260503202328 | 60 | 336 | 5.0 | 6.0 | 0.00 | 0.00 | 0.00 | 38 | 1013.7 |
| 20260503201826 | 60 | 301 | 5.0 | 6.0 | 0.00 | 0.00 | 0.00 | 39 | 1013.6 |
| 20260503201322 | 59 | 271 | 9.0 | 11.0 | 0.00 | 0.00 | 0.00 | 37 | 1013.6 |
| 20260503200820 | 60 | 238 | 8.0 | 11.0 | 0.00 | 0.00 | 0.00 | 37 | 1013.8 |
| 20260503200316 | 59 | 255 | 7.0 | 9.0 | 0.00 | 0.00 | 0.00 | 37 | 1013.7 |
| 20260503195813 | 59 | 263 | 7.0 | 10.0 | 0.00 | 0.00 | 0.00 | 39 | 1013.9 |
| 20260503195309 | 59 | 314 | 6.0 | 10.0 | 0.00 | 0.00 | 0.00 | 38 | 1013.8 |
| 20260503194806 | 59 | 298 | 5.0 | 6.0 | 0.00 | 0.00 | 0.00 | 39 | 1014.1 |
| 20260503194302 | 58 | 257 | 12.0 | 17.0 | 0.00 | 0.00 | 0.00 | 38 | 1014.2 |
| 20260503193759 | 58 | 327 | 7.0 | 9.0 | 0.00 | 0.00 | 0.00 | 38 | 1014.2 |
| 20260503193255 | 58 | 317 | 10.0 | 13.0 | 0.00 | 0.00 | 0.00 | 38 | 1014.1 |
| 20260503192750 | 58 | 298 | 9.0 | 14.0 | 0.00 | 0.00 | 0.00 | 39 | 1014.4 |
| 20260503192245 | 58 | 258 | 3.0 | 6.0 | 0.00 | 0.00 | 0.00 | 43 | 1014.3 |
| 20260503191742 | 57 | 307 | 13.0 | 16.0 | 0.00 | 0.00 | 0.00 | 39 | 1014.2 |
| 20260503191239 | 59 | 269 | 4.0 | 6.0 | 0.00 | 0.00 | 0.00 | 39 | 1014.3 |
| 20260503190731 | 58 | 274 | 5.0 | 7.0 | 0.00 | 0.00 | 0.00 | 40 | 1014.4 |
| 20260503190228 | 57 | 294 | 7.0 | 8.0 | 0.00 | 0.00 | 0.00 | 40 | 1014.4 |
| 20260503185725 | 57 | 236 | 4.0 | 6.0 | 0.00 | 0.00 | 0.00 | 41 | 1014.4 |
| 20260503185220 | 58 | 226 | 11.0 | 15.0 | 0.00 | 0.00 | 0.00 | 40 | 1014.4 |
| 20260503184715 | 57 | 308 | 5.0 | 9.0 | 0.00 | 0.00 | 0.00 | 42 | 1014.4 |
| 20260503184212 | 57 | 274 | 12.0 | 18.0 | 0.00 | 0.00 | 0.00 | 40 | 1014.5 |
| 20260503183708 | 57 | 290 | 6.0 | 7.0 | 0.00 | 0.00 | 0.00 | 41 | 1014.6 |
| 20260503183206 | 56 | 271 | 3.0 | 5.0 | 0.00 | 0.00 | 0.00 | 40 | 1014.6 |
| 20260503182704 | 56 | 273 | 5.0 | 8.0 | 0.00 | 0.00 | 0.00 | 40 | 1014.8 |
| 20260503182202 | 56 | 230 | 7.0 | 15.0 | 0.00 | 0.00 | 0.00 | 40 | 1014.8 |
| 20260503181658 | 57 | 231 | 7.0 | 8.0 | 0.00 | 0.00 | 0.00 | 41 | 1015.0 |
| 20260503181155 | 56 | 0 | 4.0 | 7.0 | 0.00 | 0.00 | 0.00 | 41 | 1014.8 |
| 20260503180652 | 57 | 276 | 5.0 | 10.0 | 0.00 | 0.00 | 0.00 | 42 | 1014.7 |
| 20260503180150 | 56 | 292 | 9.0 | 15.0 | 0.00 | 0.00 | 0.00 | 42 | 1014.9 |
| 20260503175647 | 56 | 23 | 12.0 | 17.0 | 0.00 | 0.00 | 0.00 | 41 | 1014.8 |
| 20260503175144 | 56 | 246 | 4.0 | 5.0 | 0.00 | 0.00 | 0.00 | 45 | 1014.9 |
| 20260503174640 | 55 | 256 | 6.0 | 8.0 | 0.00 | 0.00 | 0.00 | 43 | 1014.8 |
| 20260503174138 | 55 | 264 | 5.0 | 9.0 | 0.00 | 0.00 | 0.00 | 43 | 1014.8 |
| 20260503173632 | 55 | 304 | 8.0 | 10.0 | 0.00 | 0.00 | 0.00 | 40 | 1015.1 |
| 20260503173129 | 54 | 266 | 8.0 | 11.0 | 0.00 | 0.00 | 0.00 | 42 | 1015.0 |
| 20260503172620 | 56 | 234 | 8.0 | 14.0 | 0.00 | 0.00 | 0.00 | 41 | 1014.9 |
| 20260503172118 | 54 | 225 | 4.0 | 6.0 | 0.00 | 0.00 | 0.00 | 44 | 1014.9 |
| 20260503171614 | 55 | 319 | 9.0 | 10.0 | 0.00 | 0.00 | 0.00 | 40 | 1015.1 |
| 20260503171112 | 54 | 294 | 5.0 | 7.0 | 0.00 | 0.00 | 0.00 | 41 | 1015.1 |
| 20260503170608 | 55 | 287 | 7.0 | 9.0 | 0.00 | 0.00 | 0.00 | 42 | 1015.1 |
| 20260503170105 | 55 | 275 | 8.0 | 11.0 | 0.00 | 0.00 | 0.00 | 42 | 1015.3 |
| 20260503150954 | 50 | 350 | 5.0 | 9.0 | 0.00 | 0.00 | 0.00 | 53 | 1015.8 |
| 20260503150451 | 48 | 268 | 7.0 | 10.0 | 0.00 | 0.00 | 0.00 | 53 | 1015.9 |
| 20260503131338 | 47 | 298 | 5.0 | 9.0 | 0.00 | 0.00 | 0.00 | 60 | 1015.9 |
| 20260503130835 | 48 | 187 | 4.0 | 5.0 | 0.00 | 0.00 | 0.00 | 60 | 1016.0 |
| 20260503130333 | 47 | 299 | 3.0 | 3.0 | 0.00 | 0.00 | 0.00 | 59 | 1015.8 |
| 20260503110727 | 44 | 302 | 3.0 | 3.0 | 0.00 | 0.00 | 0.00 | 68 | 1015.0 |
| 20260503110224 | 44 | 319 | 1.0 | 2.0 | 0.00 | 0.00 | 0.00 | 68 | 1015.0 |
| 20260503100150 | 43 | 252 | 0.0 | 0.0 | 0.00 | 0.00 | 0.00 | 67 | 1014.0 |
| 20260503090109 | 44 | 92 | 0.0 | 0.0 | 0.00 | 0.00 | 0.00 | 67 | 1013.3 |
| 20260503081544 | 42 | 301 | 2.0 | 2.0 | 0.00 | 0.00 | 0.00 | 72 | 1013.2 |
| 20260503081042 | 42 | 257 | 0.0 | 1.0 | 0.00 | 0.00 | 0.00 | 72 | 1013.4 |
| 20260503080538 | 43 | 232 | 0.0 | 0.0 | 0.00 | 0.00 | 0.00 | 71 | 1013.1 |
| 20260503072512 | 43 | 288 | 1.0 | 1.0 | 0.00 | 0.00 | 0.00 | 71 | 1012.9 |
| 20260503072009 | 43 | 264 | 0.0 | 0.0 | 0.00 | 0.00 | 0.00 | 72 | 1013.0 |
| 20260503071506 | 43 | 279 | 0.0 | 0.0 | 0.00 | 0.00 | 0.00 | 72 | 1012.8 |
| 20260503071002 | 43 | 251 | 0.0 | 0.0 | 0.00 | 0.00 | 0.00 | 72 | 1012.8 |
| 20260503070459 | 44 | 271 | 0.0 | 1.0 | 0.00 | 0.00 | 0.00 | 72 | 1012.8 |